Location: Ajisawe
(8.4333°N, 4.3833°E)
Time: 22:26:50
(UTC+00:00)

STARLINK-1185 - Pass Details

Date: 07 June 2020
Orbit: 548 x 551 km, 53.0° (Epoch: 10 July)

Event Time Altitude Azimuth Distance (km) Brightness Sun altitude
Exits shadow 03:07:26 - 122° (ESE) 1,952 6.7 -30.7°
Enters shadow 04:08:43 -67° 221° (SW) 12,356 10.4 -17.6°
Maximum altitude 04:46:31 50° 305° (NW) 699 3.9 -9.2°
